Miscellaneous Local Product
Issued by NWS Hastings, NE

Home | Current Version | Previous Version | Graphics & Text | Print | Product List | Glossary On
Versions: 1 2 3 4 5 6 7 8 9 10 11 12 13 14 15 16 17 18 19 20 21 22 23 24 25 26 27 28 29 30 31 32 33 34 35 36 37 38 39 40 41 42 43 44 45 46 47 48 49 50
000
AXUS43 KGID 131302
MISGRI

GID CWA HOURLY WEATHER ROUNDUP
NATIONAL WEATHER SERVICE HASTINGS NE
800 AM CDT SAT SEP 13 2014

NOTE: "FAIR" INDICATES FEW OR NO CLOUDS BELOW 12,000 FEET WITH NO
SIGNIFICANT WEATHER AND/OR OBSTRUCTIONS TO VISIBILITY.

...SOUTH CENTRAL NEBRASKA...

CITY           SKY/WX    TMP DP  RH WIND       PRES   REMARKS
GRAND ISLAND   CLEAR     38  36  92 S6        30.35S WCI  33
HASTINGS       CLEAR     37  34  89 S7        30.35R WCI  32
KEARNEY        CLEAR     34  32  93 S6        30.34R WCI  29
ORD            CLEAR     34  32  92 S3        30.29F
YORK           CLEAR     36  36 100 S3        30.37R
AURORA         CLEAR     37  37  97 SW5       30.36R WCI  34
LEXINGTON      CLEAR     35  33  93 SE6       30.31S WCI  30
HOLDREGE       PTCLDY    34  32  93 CALM      30.33R
HEBRON         CLEAR     34  33  94 CALM      30.39S

...NEBRASKA PANHANDLE...

CITY           SKY/WX    TMP DP  RH WIND       PRES   REMARKS
CHADRON        CLEAR     38  35  89 S6        30.08R WCI  33
ALLIANCE       CLEAR     35  33  92 S9        30.12S WCI  28
SCOTTSBLUFF    CLEAR     35  34  96 E9        30.10F WCI  28
SIDNEY         CLOUDY    37  35  92 S10       30.16R WCI  30

...WESTERN AND NORTH CENTRAL NEBRASKA...

CITY           SKY/WX    TMP DP  RH WIND       PRES   REMARKS
VALENTINE      CLEAR     39  35  86 S16G22    30.17F WCI  30
AINSWORTH      CLEAR     37  33  86 S15       30.22S WCI  28
ONEILL         CLEAR     37  36  94 S7        30.28S WCI  32
BROKEN BOW     CLEAR     35  32  88 S8        30.27F WCI  29
IMPERIAL       CLOUDY    36  33  89 S12       30.23F WCI  28
NORTH PLATTE   CLEAR     36  32  85 S9        30.26S WCI  29
MCCOOK         PTCLDY    34  32  92 S5        30.30F WCI  30

...EASTERN NEBRASKA...

CITY           SKY/WX    TMP DP  RH WIND       PRES   REMARKS
NORFOLK        CLEAR     40  37  89 S7        30.33F
SO SIOUX CITY  CLEAR     37  37 100 SE6       30.36F WCI  32
TEKAMAH        FOG       38  37  97 CALM      30.38F VSB 3/4
ALBION         CLEAR     35  33  92 SE5       30.32F WCI  31
OMAHA EPPLEY   MOSUNNY   43  40  89 SE7       30.40S
OFFUTT AFB     FOG       37  37 100 SE1       30.40R VSB 1/4
MILLARD        FOG       39  38  97 CALM      30.39S VSB 1/4
LINCOLN        CLEAR     37  36  96 S5        30.40S WCI  33
NEBRASKA CITY  SUNNY     40  38  95 CALM      30.40S
BEATRICE       CLEAR     34  34  99 CALM      30.40S
FALLS CITY     MOSUNNY   38  37  97 S3        30.41R FOG

...NORTHERN KANSAS...

CITY           SKY/WX    TMP DP  RH WIND       PRES   REMARKS
GOODLAND       CLOUDY    39  36  89 S16       30.26F WCI  30
HILL CITY      PTCLDY    35  33  92 SW3       30.34F
NORTON         SUNNY     36  32  87 S6        30.32S WCI  31
PHILLIPSBURG   CLEAR     34  34 100 CALM      30.36S
SMITH CENTER   CLEAR     34  34 100 SE6       30.37S WCI  29
BELOIT         CLEAR     36  36 100 CALM      30.38S
HAYS           CLEAR     36  28  75 CALM      30.36S
RUSSELL        CLEAR     36  35  96 S7        30.36R WCI  30
CONCORDIA      CLEAR     37  37 100 CALM      30.39S
SALINA         PTCLDY    39  37  92 SE3       30.41R
TOPEKA         FOG       40  39  97 CALM      30.42S VSB<1/4



USA.gov is the U.S. government's official web portal to all federal, state and local government web resources and services.